Date String (YYYY-MM-DD hh:mm:ss) UTC,Instrument flags,absolute air pressure of the measurement (hPa),sample flow rate (lpm),inlet stack bypass flow (lpm),air temperature of the measurement (°C),ambient temperature measured by the external sensor (°C),aerosol sample conditioner tube jacket temperature (°C),OPC LED temperature (°C),internal box temperature (°C),relative humidity of the measurement (%),span deviation,mass concentration of particles derived from Lorenz-Mie calculation of OPC scattering (μg/m³),mass concentration of particles derived from Lorenz-Mie calculation of OPC scattering (μg/m³),mass concentration of particles derived from Lorenz-Mie calculation of OPC scattering (μg/m³)
DateTimeUTC,F1_M11,P_M11,Q1_M11,Q2_M11,T1_M11,T2_M11,T3_M11,T4_M11,T5_M11,U1_M11,ZSPAN_M11,X0_M11,X2_M11,X1_M11
2024-04-13 18:00:00,SystemResetWarning,0827.3,5.01,000.00,025.4,024.7,000.0,033.5,027.2,014.1,0000.0,0013.58,0004.28,0002.74
2024-04-13 18:01:00,SystemResetWarning,0827.2,4.99,000.00,025.2,023.0,000.0,033.6,026.2,014.9,0000.0,0017.26,0004.56,0003.14
2024-04-13 18:02:00,SystemResetWarning,0827.2,5.01,000.00,024.8,021.7,000.0,033.6,025.4,015.2,0000.0,0019.59,0004.83,0003.43
2024-04-13 18:03:00,SystemResetWarning,0827.2,5.01,000.00,024.6,022.0,000.0,033.5,025.5,014.8,0000.0,0020.21,0005.12,0003.70
2024-04-13 18:04:00,SystemResetWarning,0827.2,4.99,000.00,024.6,022.4,000.0,033.4,025.8,015.2,0000.0,0022.17,0005.41,0003.95
2024-04-13 18:05:00,SystemResetWarning,0827.2,4.99,000.00,024.7,022.8,000.0,033.3,026.1,014.6,0000.0,0022.76,0005.69,0004.19
2024-04-13 18:06:00,SystemResetWarning,0827.2,5.01,000.00,024.7,023.2,000.0,033.2,026.3,013.5,0002.6,0023.16,0005.95,0004.43
2024-04-13 18:07:00,SystemResetWarning,0827.2,5.01,000.00,024.8,023.5,000.0,033.2,026.5,014.3,0004.1,0022.98,0006.22,0004.63
2024-04-13 18:08:00,SystemResetWarning,0827.2,5.00,000.00,024.9,023.7,000.0,033.2,026.7,015.4,0004.4,0023.95,0006.55,0004.85
2024-04-13 18:09:00,SystemResetWarning,0827.2,5.00,000.00,024.9,024.0,000.0,033.2,026.8,015.5,0004.5,0024.45,0006.82,0005.08
2024-04-13 18:10:00,SystemResetWarning,0827.1,4.99,000.00,025.0,024.2,000.0,033.2,026.9,015.9,0004.7,0024.43,0007.01,0005.24
2024-04-13 18:11:00,SystemResetWarning,0827.2,4.99,000.00,025.1,024.3,000.0,033.2,027.0,016.0,0004.5,0025.12,0007.11,0005.33
2024-04-13 18:12:00,SystemResetWarning,0827.2,5.00,000.00,025.2,024.5,000.0,033.3,027.1,016.2,0004.6,0024.11,0007.11,0005.30
2024-04-13 18:13:00,SystemResetWarning,0827.2,5.01,000.00,025.2,024.7,000.0,033.3,027.2,015.7,0004.7,0022.31,0007.10,0005.23
2024-04-13 18:14:00,SystemResetWarning,0827.2,5.00,000.00,025.3,024.8,000.0,033.3,027.3,016.4,0004.5,0022.23,0007.09,0005.18
2024-04-13 18:15:00,SystemResetWarning,0827.2,5.00,000.00,025.4,024.9,000.0,033.4,027.3,016.6,0004.4,0021.07,0007.13,0005.16
2024-04-13 18:16:00,SystemResetWarning,0827.2,4.99,000.00,025.4,025.0,000.0,033.4,027.4,015.8,0004.7,0021.53,0007.16,0005.15
2024-04-13 18:17:00,SystemResetWarning,0827.2,5.00,000.00,025.5,024.9,000.0,033.5,027.3,015.3,0004.7,0023.28,0007.23,0005.16
2024-04-13 18:18:00,SystemResetWarning,0827.2,4.99,000.00,025.3,023.1,000.0,033.6,026.2,015.8,0004.6,0025.32,0007.27,0005.18
2024-04-13 18:19:00,SystemResetWarning,0827.1,5.01,000.00,024.8,021.6,000.0,033.6,025.3,017.1,0004.2,0027.41,0007.30,0005.21
2024-04-13 18:20:00,SystemResetWarning,0827.1,5.01,000.00,024.6,021.8,000.0,033.5,025.3,017.4,0002.2,0028.36,0007.39,0005.23
2024-04-13 18:21:00,SystemResetWarning,0827.2,4.99,000.00,024.6,022.2,000.0,033.3,025.6,017.7,0000.8,0028.81,0007.33,0005.24
2024-04-13 18:22:00,SystemResetWarning,0827.1,5.00,000.00,024.6,022.6,000.0,033.2,026.0,017.4,0000.0,0029.61,0007.36,0005.25
2024-04-13 18:23:00,SystemResetWarning,0827.1,5.00,000.00,024.6,023.0,000.0,033.2,026.2,017.0,0000.0,0029.04,0007.37,0005.27
2024-04-13 18:24:00,SystemResetWarning,0827.2,5.00,000.00,024.7,023.3,000.0,033.2,026.4,016.9,0000.0,0029.91,0007.45,0005.29
2024-04-13 18:25:00,SystemResetWarning,0827.1,5.01,000.00,024.8,023.6,000.0,033.1,026.6,016.7,0000.0,0030.04,0007.48,0005.33
2024-04-13 18:26:00,SystemResetWarning,0827.2,4.99,000.00,024.8,023.8,000.0,033.2,026.7,016.5,0003.9,0030.05,0007.53,0005.35
2024-04-13 18:27:00,SystemResetWarning,0827.1,4.99,000.00,024.9,024.0,000.0,033.2,026.7,016.4,0003.9,0030.16,0007.49,0005.34
2024-04-13 18:28:00,SystemResetWarning,0827.1,4.99,000.00,025.0,024.2,000.0,033.2,026.8,016.5,0003.9,0029.11,0007.42,0005.31
2024-04-13 18:29:00,SystemResetWarning,0827.1,5.01,000.00,025.1,024.4,000.0,033.2,027.0,016.7,0004.1,0027.71,0007.36,0005.29
2024-04-13 18:30:00,SystemResetWarning,0827.1,5.02,000.00,025.1,024.5,000.0,033.2,027.0,016.4,0004.4,0024.61,0007.34,0005.27
2024-04-13 18:31:00,SystemResetWarning,0827.2,5.00,000.00,025.2,024.6,000.0,033.3,027.1,016.1,0004.9,0023.28,0007.20,0005.21
2024-04-13 18:32:00,SystemResetWarning,0827.1,5.00,000.00,025.3,024.8,000.0,033.3,027.2,015.9,0004.3,0023.76,0007.14,0005.13
2024-04-13 18:33:00,SystemResetWarning,0827.2,5.00,000.00,025.3,024.8,000.0,033.3,027.3,015.8,0004.7,0023.01,0007.03,0005.05
2024-04-13 18:34:00,SystemResetWarning,0827.1,5.00,000.00,025.4,024.9,000.0,033.4,027.3,015.5,0004.7,0022.56,0006.99,0004.98
2024-04-13 18:35:00,SystemResetWarning,0827.1,5.00,000.00,025.4,025.0,000.0,033.4,027.4,013.4,0004.7,0021.29,0006.80,0004.87
2024-04-13 18:36:00,SystemResetWarning,0827.1,5.00,000.00,025.5,025.1,000.0,033.5,027.5,012.9,0005.0,0020.07,0006.58,0004.70
2024-04-13 18:37:00,SystemResetWarning,0827.1,4.99,000.00,025.5,024.6,000.0,033.6,027.1,012.0,0001.6,0019.86,0006.27,0004.51
2024-04-13 18:38:00,SystemResetWarning,0827.0,5.00,000.00,025.2,022.5,000.0,033.6,025.8,011.9,0000.0,0018.69,0005.99,0004.31
2024-04-13 18:39:00,SystemResetWarning,0826.9,5.01,000.00,024.8,021.6,000.0,033.6,025.3,012.2,0000.0,0017.41,0005.77,0004.13
2024-04-13 18:40:00,SystemResetWarning,0827.0,5.02,000.00,024.6,021.9,000.0,033.5,025.4,012.2,0000.0,0017.65,0005.61,0003.94
2024-04-13 18:41:00,SystemResetWarning,0827.0,5.00,000.00,024.6,022.3,000.0,033.3,025.7,011.7,0000.0,0018.51,0005.41,0003.73
2024-04-13 18:42:00,SystemResetWarning,0827.0,5.00,000.00,024.6,022.7,000.0,033.3,026.1,011.7,0000.0,0018.92,0005.25,0003.57
2024-04-13 18:43:00,SystemResetWarning,0827.0,5.00,000.00,024.7,023.1,000.0,033.2,026.3,012.3,0000.0,0018.48,0005.07,0003.40
2024-04-13 18:44:00,SystemResetWarning,0827.1,5.00,000.00,024.7,023.4,000.0,033.2,026.5,012.4,0000.0,0016.97,0004.83,0003.23
2024-04-13 18:45:00,SystemResetWarning,0827.0,5.01,000.00,024.8,023.7,000.0,033.2,026.6,011.7,0000.0,0015.49,0004.57,0003.03
2024-04-13 18:46:00,SystemResetWarning,0827.1,4.99,000.00,024.9,023.9,000.0,033.2,026.7,012.3,0000.0,0014.39,0004.40,0002.77
2024-04-13 18:47:00,SystemResetWarning,0827.1,5.01,000.00,025.0,024.1,000.0,033.2,026.9,011.9,0000.0,0014.46,0004.28,0002.58
2024-04-13 18:48:00,SystemResetWarning,0827.1,5.00,000.00,025.0,024.3,000.0,033.2,026.9,011.2,0000.0,0014.93,0004.21,0002.47
2024-04-13 18:49:00,SystemResetWarning,0827.1,5.00,000.00,025.1,024.4,000.0,033.2,027.0,011.9,0000.0,0014.44,0004.18,0002.39
2024-04-13 18:50:00,SystemResetWarning,0827.1,4.99,000.00,025.2,024.5,000.0,033.3,027.1,011.3,0000.0,0014.50,0004.10,0002.30
2024-04-13 18:51:00,SystemResetWarning,0827.1,5.00,000.00,025.2,024.7,000.0,033.3,027.2,010.9,0000.0,0014.08,0004.03,0002.30
2024-04-13 18:52:00,SystemResetWarning,0827.0,5.00,000.00,025.3,024.8,000.0,033.4,027.2,012.2,0000.0,0012.31,0003.93,0002.28
2024-04-13 18:53:00,SystemResetWarning,0827.0,5.01,000.00,025.4,024.9,000.0,033.4,027.3,011.6,0000.0,0012.12,0003.89,0002.25
2024-04-13 18:54:00,SystemResetWarning,0827.0,5.00,000.00,025.4,025.0,000.0,033.4,027.4,011.2,0000.0,0011.60,0003.91,0002.25
2024-04-13 18:55:00,SystemResetWarning,0827.0,5.00,000.00,025.5,025.1,000.0,033.5,027.5,012.1,0000.0,0011.98,0003.90,0002.27
2024-04-13 18:56:00,SystemResetWarning,0827.0,4.99,000.00,025.6,025.1,000.0,033.5,027.5,011.5,0000.0,0012.67,0003.92,0002.28
2024-04-13 18:57:00,SystemResetWarning,0827.0,5.00,000.00,025.6,025.2,000.0,033.6,027.5,011.3,0000.0,0012.65,0003.93,0002.29
2024-04-13 18:58:00,SystemResetWarning,0827.0,5.00,000.00,025.7,025.1,000.0,033.6,027.5,011.5,0000.0,0013.18,0003.97,0002.28
2024-04-13 18:59:00,SystemResetWarning,0826.9,5.00,000.00,025.5,023.3,000.0,033.7,026.5,012.6,0000.0,0013.41,0004.00,0002.29
